Location: Newark
(36.2350°N, 59.6408°E)
Time: 14:00:01
(UTC+00:00)

ISS - Pass Details

Date: 21 November 2019
Orbit: 411 x 421 km, 51.6° (Epoch: 15 December)

Event Time Altitude Azimuth Distance (km) Brightness Sun altitude
Rises 15:04:30 0° 250° (WSW) 2,347 1.2 -26.9°
Reaches altitude 10° 15:06:44 10° 261° (W) 1,490 0.0 -27.3°
Enters shadow 15:08:16 21° 280° (W) 988 -1.2 -27.6°
